Change the Weather History Date:

Thursday, November 8, 2012

  Actual Average (KOTG) Record (KOTG)
Temperature  
Mean Temperature 44 °F -  
Max Temperature 54 °F 42 °F 77 °F (2006)
Min Temperature 33 °F 27 °F -6 °F (1991)
Degree Days  
Heating Degree Days 22    
Moisture  
Dew Point 33 °F    
Average Humidity 74    
Maximum Humidity 98    
Minimum Humidity 42    
Precipitation  
Precipitation 0.00 in - - ()
Sea Level Pressure  
Sea Level Pressure 29.93 in    
Wind  
Wind Speed 14 mph (NNW)    
Max Wind Speed 21 mph    
Max Gust Speed 31 mph    
Visibility 9 miles    
Events      
Averages and records for this station are not official NWS values.
T = Trace of Precipitation, MM = Missing Value Source: NWS Daily Summary

Daily Weather History Graph

Daily Weather History Graph

Search for Another Location

Airport or City:

Trip Planner

Search our weather history database for the weather conditions in past years. The results will help you decide how hot, cold, wet, or windy it might be!

Date:

Astronomy

Nov. 08, 2012 Rise Set
Actual Time 7:09 AM CST 5:03 PM CST
Civil Twilight 6:38 AM CST 5:34 PM CST
Nautical Twilight 6:04 AM CST 6:08 PM CST
Astronomical Twilight 5:30 AM CST 6:42 PM CST
Moon 12:54 AM CST (11/8) 1:55 PM CST (11/8)
Length of Visible Light 10h 55m
Length of Day
9h 54m
Waning Crescent, 32% of the Moon is Illuminated
Nov 8
Waning Crescent
Nov 13
New
Nov 20
First Quarter
Nov 28
Full
Dec 6
Last Quarter

Hourly Weather History & Observations

Time (CST) Temp. Windchill Dew Point Humidity Pressure Visibility Wind Dir Wind Speed Gust Speed Precip Events Conditions
12:15 AM 34.7 °F 25.1 °F 32.0 °F 90% 29.95 in 10.0 mi SSE 15.0 mph - N/A   Clear
12:36 AM 34.7 °F 25.1 °F 32.0 °F 90% 29.95 in 10.0 mi SSE 15.0 mph - N/A   Clear
1:15 AM 34.0 °F 25.5 °F 32.0 °F 92% 29.94 in 10.0 mi SE 11.5 mph - N/A   Clear
1:34 AM 33.8 °F 25.3 °F 31.8 °F 92% 29.93 in 10.0 mi SE 11.5 mph - N/A   Clear
1:55 AM 34.7 °F 25.5 °F 31.8 °F 89% 29.93 in 10.0 mi SSE 13.8 mph - N/A   Clear
2:35 AM 35.6 °F 25.9 °F 31.8 °F 86% 29.91 in 10.0 mi SSE 16.1 mph - N/A   Clear
2:55 AM 36.1 °F 26.2 °F 31.8 °F 84% 29.90 in 10.0 mi South 17.3 mph - N/A   Clear
3:15 AM 36.5 °F 26.3 °F 31.8 °F 83% 29.89 in 10.0 mi South 18.4 mph - N/A   Clear
3:34 AM 37.4 °F 26.9 °F 31.8 °F 80% 29.88 in 10.0 mi South 20.7 mph - N/A   Clear
3:54 AM 37.4 °F 27.2 °F 31.8 °F 80% 29.88 in 10.0 mi South 19.6 mph - N/A   Clear
4:15 AM 37.4 °F 27.5 °F 31.8 °F 80% 29.87 in 10.0 mi South 18.4 mph - N/A   Clear
4:35 AM 37.6 °F 27.7 °F 31.6 °F 79% 29.86 in 10.0 mi South 18.4 mph 23.0 mph N/A   Clear
4:55 AM 37.8 °F 29.0 °F 31.6 °F 79% 29.85 in 10.0 mi South 15.0 mph 24.2 mph N/A   Clear
5:15 AM 38.8 °F 29.1 °F 31.5 °F 75% 29.85 in 10.0 mi South 19.6 mph 25.3 mph N/A   Clear
5:35 AM 39.4 °F 30.4 °F 31.1 °F 72% 29.84 in 10.0 mi South 17.3 mph 31.1 mph N/A   Clear
5:55 AM 38.8 °F 30.0 °F 31.1 °F 74% 29.84 in 10.0 mi South 16.1 mph 25.3 mph N/A   Clear
6:14 AM 38.5 °F 29.2 °F 31.3 °F 75% 29.86 in 10.0 mi SSW 17.3 mph 24.2 mph N/A   Clear
6:34 AM 37.9 °F 28.5 °F 31.1 °F 76% 29.86 in 10.0 mi South 17.3 mph 20.7 mph N/A   Clear
6:55 AM 37.6 °F 28.1 °F 31.1 °F 77% 29.87 in 10.0 mi South 17.3 mph 23.0 mph N/A   Clear
7:15 AM 37.0 °F 29.8 °F 31.5 °F 80% 29.87 in 10.0 mi South 10.4 mph - N/A   Clear
7:34 AM 37.2 °F 27.6 °F 31.5 °F 80% 29.87 in 10.0 mi South 17.3 mph - N/A   Clear
7:54 AM 38.3 °F 30.5 °F 31.6 °F 77% 29.88 in 10.0 mi South 12.7 mph 20.7 mph N/A   Clear
8:15 AM 38.7 °F 30.5 °F 31.8 °F 76% 29.89 in 10.0 mi South 13.8 mph - N/A   Clear
8:35 AM 39.7 °F 32.3 °F 32.0 °F 74% 29.90 in 10.0 mi South 12.7 mph 18.4 mph N/A   Clear
8:55 AM 41.0 °F 33.1 °F 32.0 °F 70% 29.90 in 10.0 mi SSW 15.0 mph 19.6 mph N/A   Clear
9:15 AM 42.1 °F 33.6 °F 32.0 °F 67% 29.91 in 10.0 mi SSW 18.4 mph - N/A   Clear
9:35 AM 43.5 °F 36.1 °F 32.0 °F 64% 29.91 in 10.0 mi SSW 16.1 mph - N/A   Clear
9:54 AM 44.4 °F 37.5 °F 32.0 °F 62% 29.91 in 10.0 mi SSW 15.0 mph - N/A   Clear
10:15 AM 45.7 °F 39.5 °F 32.0 °F 59% 29.92 in 10.0 mi SSW 13.8 mph - N/A   Clear
10:35 AM 46.6 °F - 32.0 °F 57% 29.92 in 10.0 mi SW 12.7 mph - N/A   Clear
10:55 AM 47.5 °F - 32.2 °F 55% 29.92 in 10.0 mi SW 9.2 mph - N/A   Clear
11:15 AM 48.6 °F - 32.2 °F 53% 29.92 in 10.0 mi SW 6.9 mph - N/A   Clear
11:35 AM 49.1 °F - 32.0 °F 52% 29.91 in 10.0 mi West 8.1 mph - N/A   Clear
11:54 AM 50.0 °F - 31.8 °F 50% 29.91 in 10.0 mi West 3.5 mph - N/A   Clear
12:15 PM 50.5 °F - 32.0 °F 49% 29.91 in 10.0 mi WNW 4.6 mph - N/A   Clear
12:55 PM 52.2 °F - 32.2 °F 47% 29.91 in 10.0 mi North 6.9 mph - N/A   Clear
1:15 PM 52.9 °F - 32.2 °F 45% 29.91 in 10.0 mi NNW 6.9 mph - N/A   Clear
1:35 PM 53.6 °F - 32.0 °F 44% 29.90 in 10.0 mi North 6.9 mph - N/A   Clear
1:55 PM 54.1 °F - 32.0 °F 43% 29.90 in 10.0 mi NNE 8.1 mph - N/A   Clear
2:15 PM 54.7 °F - 32.2 °F 42% 29.91 in 10.0 mi NNE 8.1 mph - N/A   Clear
2:35 PM 54.9 °F - 32.7 °F 43% 29.91 in 10.0 mi North 11.5 mph - N/A   Clear
2:55 PM 54.7 °F - 33.1 °F 44% 29.92 in 10.0 mi North 9.2 mph - N/A   Clear
3:14 PM 54.0 °F - 33.3 °F 46% 29.92 in 10.0 mi North 11.5 mph - N/A   Clear
3:35 PM 53.6 °F - 33.8 °F 47% 29.93 in 10.0 mi North 10.4 mph - N/A   Clear
3:54 PM 52.7 °F - 34.0 °F 49% 29.94 in 10.0 mi North 9.2 mph - N/A   Clear
4:15 PM 51.8 °F - 34.2 °F 51% 29.94 in 10.0 mi North 11.5 mph 17.3 mph N/A   Clear
4:35 PM 50.5 °F - 34.5 °F 54% 29.95 in 10.0 mi NNE 6.9 mph - N/A   Clear
4:55 PM 49.1 °F - 34.3 °F 57% 29.95 in 10.0 mi NNE 8.1 mph - N/A   Clear
5:15 PM 47.3 °F - 34.2 °F 60% 29.95 in 10.0 mi North 6.9 mph - N/A   Clear
5:35 PM 45.5 °F 40.8 °F 36.0 °F 69% 29.96 in 10.0 mi North 9.2 mph - N/A   Clear
5:55 PM 41.7 °F 34.1 °F 36.7 °F 82% 29.97 in 10.0 mi North 15.0 mph 21.9 mph N/A   Clear
6:14 PM 40.3 °F 32.6 °F 36.5 °F 86% 29.98 in 10.0 mi North 13.8 mph 19.6 mph N/A   Clear
6:35 PM 39.0 °F 30.6 °F 36.0 °F 89% 29.98 in 10.0 mi North 15.0 mph 19.6 mph N/A   Clear
6:55 PM 38.1 °F 30.2 °F 35.8 °F 91% 29.98 in 7.0 mi North 12.7 mph - N/A   Clear
7:14 PM 37.6 °F 29.1 °F 36.0 °F 94% 29.98 in 7.0 mi North 13.8 mph - N/A   Clear
7:35 PM 37.6 °F 28.8 °F 36.1 °F 95% 29.98 in 7.0 mi North 15.0 mph 18.4 mph N/A   Mostly Cloudy
7:55 PM 37.8 °F 29.4 °F 36.5 °F 95% 29.98 in 7.0 mi North 13.8 mph - N/A   Overcast
8:14 PM 37.4 °F 28.2 °F 36.5 °F 97% 29.98 in 7.0 mi North 16.1 mph 20.7 mph N/A   Overcast
8:35 PM 37.6 °F 28.4 °F 36.5 °F 96% 29.98 in 7.0 mi North 16.1 mph 20.7 mph N/A   Overcast
8:54 PM 37.4 °F 28.2 °F 36.5 °F 97% 29.98 in 7.0 mi North 16.1 mph 20.7 mph N/A   Overcast
9:15 PM 37.4 °F 29.8 °F 36.1 °F 95% 29.98 in 7.0 mi North 11.5 mph 18.4 mph N/A   Overcast
9:35 PM 37.2 °F 29.6 °F 36.3 °F 97% 29.99 in 7.0 mi North 11.5 mph - N/A   Overcast
9:54 PM 36.9 °F 29.1 °F 36.0 °F 97% 30.00 in 7.0 mi North 11.5 mph - N/A   Overcast
10:14 PM 36.7 °F 28.4 °F 35.8 °F 97% 30.00 in 7.0 mi North 12.7 mph - N/A   Overcast
10:34 PM 37.0 °F 29.3 °F 36.0 °F 96% 30.00 in 7.0 mi North 11.5 mph - N/A   Overcast
10:55 PM 36.9 °F 28.7 °F 36.0 °F 97% 30.00 in 7.0 mi North 12.7 mph - N/A   Overcast
11:14 PM 36.5 °F 28.2 °F 35.6 °F 97% 30.00 in 7.0 mi North 12.7 mph - N/A   Overcast
11:35 PM 36.5 °F 28.7 °F 35.6 °F 97% 29.99 in 5.0 mi North 11.5 mph - N/A   Overcast
11:55 PM 36.1 °F 27.7 °F 35.6 °F 98% 29.98 in 5.0 mi North 12.7 mph - N/A   Overcast